OAE2100 PANC-RODN

Flight info

Callsign OAE2100
Flight time N/A
Altitude 34000
Route NODLE R220 NICHO/N0489F350 R220 NANDY/N0487F360 R220 NRKEY/N0486F370 R220 NUBDA/N0474F380 R220 NODAN R217 ASTER Y514 SDE Y512 GTC Y45 GORYU V30 IKUJI Y45 KMC Y382 WAKIT Y282 POPPY V53 SUC B597 ONC Y45 NHC
Aircraft B772/H-SDE3FGHIJ1J4J7M3P2RWXY/LB1D1G1

Departure

Time N/A
Airport Ted Stevens Anchorage International Airport (PANC)

Arrival

Time 2026-04-17 03:20
Airport Kadena Air Base (RODN)
Time Latitude Longitude Altitude Speed Heading
2026-04-17 02:37 29.00624 130.04304 38026 ft 444 kts 213°
2026-04-17 02:37 28.97871 130.02698 38034 ft 445 kts 213°
2026-04-17 02:37 28.92359 129.99485 38027 ft 445 kts 213°
2026-04-17 02:38 28.86846 129.96275 38007 ft 445 kts 213°
2026-04-17 02:38 28.81369 129.93089 38025 ft 445 kts 213°
2026-04-17 02:39 28.75855 129.89884 38021 ft 445 kts 213°
2026-04-17 02:39 28.70337 129.86680 38016 ft 445 kts 213°
2026-04-17 02:40 28.64827 129.83476 38006 ft 445 kts 213°
2026-04-17 02:40 28.59364 129.80300 38016 ft 445 kts 213°
2026-04-17 02:41 28.53841 129.77093 38000 ft 445 kts 213°
2026-04-17 02:41 28.48326 129.73896 37989 ft 444 kts 213°
2026-04-17 02:42 28.43054 129.70359 37998 ft 437 kts 220°
2026-04-17 02:42 28.38407 129.66000 37997 ft 432 kts 226°
2026-04-17 02:43 28.33973 129.61460 37996 ft 432 kts 226°
2026-04-17 02:43 28.29493 129.56911 38007 ft 432 kts 226°
2026-04-17 02:44 28.25005 129.52370 38003 ft 432 kts 226°
2026-04-17 02:44 28.20514 129.47834 38008 ft 432 kts 226°
2026-04-17 02:45 28.16023 129.43296 37991 ft 432 kts 226°
2026-04-17 02:45 28.11576 129.38783 38005 ft 432 kts 226°
2026-04-17 02:46 28.07097 129.34242 38014 ft 432 kts 226°
2026-04-17 02:46 28.04856 129.31972 37822 ft 434 kts 226°
2026-04-17 02:46 28.02582 129.29667 37116 ft 440 kts 226°
2026-04-17 02:47 28.00341 129.27402 36616 ft 435 kts 226°
2026-04-17 02:47 27.98098 129.25137 36127 ft 430 kts 226°
2026-04-17 02:47 27.95872 129.22891 35663 ft 426 kts 226°
2026-04-17 02:47 27.93669 129.20668 35180 ft 423 kts 226°
2026-04-17 02:48 27.91480 129.18458 34692 ft 421 kts 226°
2026-04-17 02:48 27.89300 129.16258 34201 ft 419 kts 226°
2026-04-17 02:48 27.87129 129.14067 33671 ft 417 kts 226°
2026-04-17 02:48 27.84974 129.11896 33170 ft 414 kts 226°
2026-04-17 02:49 27.82857 129.09766 32677 ft 411 kts 226°
2026-04-17 02:49 27.80732 129.07624 32177 ft 408 kts 225°
2026-04-17 02:49 27.78625 129.05496 31706 ft 405 kts 225°
2026-04-17 02:49 27.76534 129.03380 31239 ft 402 kts 225°
2026-04-17 02:50 27.74453 129.01276 30776 ft 400 kts 225°
2026-04-17 02:50 27.72386 128.99186 30301 ft 398 kts 225°
2026-04-17 02:50 27.70330 128.97108 29780 ft 396 kts 225°
2026-04-17 02:50 27.68285 128.95044 29232 ft 393 kts 225°
2026-04-17 02:51 27.66254 128.92994 28705 ft 390 kts 225°
2026-04-17 02:51 27.64245 128.90968 28188 ft 386 kts 225°
2026-04-17 02:51 27.62276 128.88984 27717 ft 383 kts 225°
2026-04-17 02:51 27.60301 128.86995 27228 ft 379 kts 225°
2026-04-17 02:52 27.58340 128.85019 26737 ft 377 kts 225°
2026-04-17 02:52 27.56392 128.83059 26273 ft 374 kts 225°
2026-04-17 02:52 27.54460 128.81115 25806 ft 372 kts 225°
2026-04-17 02:52 27.52534 128.79178 25344 ft 370 kts 225°
2026-04-17 02:53 27.50622 128.77255 24872 ft 368 kts 225°
2026-04-17 02:53 27.48713 128.75336 24411 ft 367 kts 225°
2026-04-17 02:53 27.46810 128.73425 23942 ft 366 kts 225°
2026-04-17 02:53 27.44911 128.71519 23481 ft 365 kts 225°
2026-04-17 02:54 27.43027 128.69656 22969 ft 365 kts 223°
2026-04-17 02:54 27.41048 128.67884 22523 ft 363 kts 221°
2026-04-17 02:54 27.39058 128.66153 22092 ft 361 kts 221°
2026-04-17 02:54 27.37068 128.64432 21657 ft 360 kts 221°
2026-04-17 02:55 27.35085 128.62716 21189 ft 359 kts 221°
2026-04-17 02:55 27.33110 128.61003 20764 ft 357 kts 221°
2026-04-17 02:55 27.31155 128.59303 20339 ft 355 kts 221°
2026-04-17 02:55 27.29208 128.57608 19919 ft 353 kts 221°
2026-04-17 02:56 27.27295 128.55943 19496 ft 352 kts 221°
2026-04-17 02:56 27.25360 128.54258 19068 ft 352 kts 221°
2026-04-17 02:56 27.23429 128.52577 18642 ft 351 kts 221°
2026-04-17 02:56 27.21504 128.50901 18196 ft 350 kts 221°
2026-04-17 02:57 27.19578 128.49225 17729 ft 349 kts 221°
2026-04-17 02:57 27.17661 128.47558 17289 ft 347 kts 221°
2026-04-17 02:57 27.15761 128.45907 16856 ft 345 kts 221°
2026-04-17 02:57 27.13868 128.44264 16429 ft 343 kts 221°
2026-04-17 02:58 27.11993 128.42635 16070 ft 338 kts 221°
2026-04-17 02:58 27.10224 128.40991 15885 ft 332 kts 224°
2026-04-17 02:58 27.08477 128.39299 15703 ft 332 kts 224°
2026-04-17 02:58 27.06725 128.37594 15511 ft 335 kts 224°
2026-04-17 02:59 27.04965 128.35877 15327 ft 336 kts 224°
2026-04-17 02:59 27.03206 128.34156 15127 ft 335 kts 224°
2026-04-17 02:59 27.01457 128.32442 14935 ft 334 kts 224°
2026-04-17 02:59 26.99708 128.30727 14748 ft 332 kts 224°
2026-04-17 03:00 26.97973 128.29023 14568 ft 331 kts 224°
2026-04-17 03:00 26.96245 128.27328 14383 ft 329 kts 224°
2026-04-17 03:00 26.94547 128.25664 14204 ft 328 kts 224°
2026-04-17 03:00 26.92833 128.23983 14039 ft 327 kts 224°
2026-04-17 03:01 26.91125 128.22303 13847 ft 326 kts 224°
2026-04-17 03:01 26.89426 128.20624 13636 ft 326 kts 224°
2026-04-17 03:01 26.87731 128.18945 13434 ft 325 kts 224°
2026-04-17 03:01 26.86041 128.17269 13239 ft 324 kts 224°
2026-04-17 03:02 26.84361 128.15599 13032 ft 323 kts 224°
2026-04-17 03:02 26.82707 128.13955 12833 ft 322 kts 224°
2026-04-17 03:02 26.81039 128.12296 12643 ft 321 kts 224°
2026-04-17 03:02 26.79372 128.10638 12452 ft 320 kts 224°
2026-04-17 03:03 26.77706 128.08982 12260 ft 320 kts 224°
2026-04-17 03:03 26.76044 128.07330 12039 ft 320 kts 224°
2026-04-17 03:03 26.74382 128.05680 11848 ft 319 kts 224°
2026-04-17 03:03 26.72728 128.04036 11650 ft 318 kts 224°
2026-04-17 03:04 26.71080 128.02397 11460 ft 316 kts 224°
2026-04-17 03:04 26.69438 128.00765 11274 ft 315 kts 224°
2026-04-17 03:04 26.67820 127.99159 11084 ft 315 kts 224°
2026-04-17 03:04 26.66196 127.97524 10892 ft 313 kts 226°
2026-04-17 03:05 26.64664 127.95808 10700 ft 312 kts 228°
2026-04-17 03:05 26.63182 127.94078 10473 ft 297 kts 229°
2026-04-17 03:05 26.61798 127.92470 10172 ft 279 kts 229°
2026-04-17 03:05 26.60434 127.90984 9775 ft 272 kts 227°
2026-04-17 03:06 26.59109 127.89475 9434 ft 272 kts 229°
2026-04-17 03:06 26.57804 127.87953 9146 ft 270 kts 229°
2026-04-17 03:06 26.56531 127.86464 8956 ft 266 kts 229°
2026-04-17 03:06 26.55276 127.84946 8648 ft 266 kts 232°
2026-04-17 03:07 26.54097 127.83353 8416 ft 266 kts 233°
2026-04-17 03:07 26.52935 127.81750 8232 ft 265 kts 233°
2026-04-17 03:07 26.51788 127.80153 8020 ft 263 kts 234°
2026-04-17 03:07 26.50649 127.78561 7781 ft 262 kts 234°
2026-04-17 03:08 26.49513 127.76969 7537 ft 261 kts 234°
2026-04-17 03:08 26.48385 127.75389 7217 ft 260 kts 234°
2026-04-17 03:08 26.47264 127.73815 6928 ft 258 kts 234°
2026-04-17 03:08 26.46163 127.72266 6617 ft 258 kts 234°
2026-04-17 03:09 26.45052 127.70700 6324 ft 257 kts 234°
2026-04-17 03:09 26.43951 127.69139 6015 ft 255 kts 234°
2026-04-17 03:09 26.42862 127.67585 5721 ft 254 kts 234°
2026-04-17 03:09 26.41783 127.66036 5416 ft 252 kts 233°
2026-04-17 03:10 26.40723 127.64484 5106 ft 251 kts 234°
2026-04-17 03:10 26.39685 127.62957 4805 ft 250 kts 234°
2026-04-17 03:10 26.38631 127.61417 4439 ft 250 kts 233°
2026-04-17 03:10 26.37583 127.59872 4265 ft 247 kts 233°
2026-04-17 03:11 26.36556 127.58330 4032 ft 248 kts 234°
2026-04-17 03:11 26.35522 127.56776 3794 ft 250 kts 234°
2026-04-17 03:11 26.34495 127.55222 3634 ft 250 kts 233°
2026-04-17 03:11 26.33493 127.53669 3530 ft 241 kts 234°
2026-04-17 03:12 26.32566 127.52227 3341 ft 217 kts 233°
2026-04-17 03:12 26.31718 127.50890 3248 ft 206 kts 234°
2026-04-17 03:12 26.30901 127.49596 3109 ft 201 kts 233°
2026-04-17 03:12 26.30090 127.48337 3048 ft 200 kts 226°
2026-04-17 03:13 26.28947 127.47567 2988 ft 191 kts 190°
2026-04-17 03:13 26.27624 127.47773 2967 ft 199 kts 153°
2026-04-17 03:13 26.26486 127.48655 2979 ft 201 kts 144°
2026-04-17 03:13 26.25366 127.49611 2979 ft 204 kts 144°
2026-04-17 03:14 26.24234 127.50582 2959 ft 205 kts 144°
2026-04-17 03:14 26.23129 127.51541 2963 ft 198 kts 144°
2026-04-17 03:14 26.22052 127.52486 2944 ft 197 kts 144°
2026-04-17 03:14 26.20984 127.53423 2971 ft 201 kts 144°
2026-04-17 03:15 26.20012 127.54546 2944 ft 205 kts 118°
2026-04-17 03:15 26.19763 127.56106 2948 ft 211 kts 81°
2026-04-17 03:15 26.20387 127.57574 2969 ft 215 kts 46°
2026-04-17 03:15 26.21612 127.58504 2970 ft 212 kts 32°
2026-04-17 03:16 26.22655 127.59663 2981 ft 213 kts 53°
2026-04-17 03:16 26.23719 127.60832 2872 ft 217 kts 43°
2026-04-17 03:16 26.24846 127.61980 2811 ft 223 kts 43°
2026-04-17 03:16 26.25917 127.63189 2789 ft 222 kts 50°
2026-04-17 03:17 26.26922 127.64533 2447 ft 226 kts 53°
2026-04-17 03:17 26.27899 127.65891 2128 ft 221 kts 53°
2026-04-17 03:17 26.28824 127.67167 1899 ft 204 kts 54°
2026-04-17 03:17 26.29685 127.68352 1684 ft 187 kts 53°
2026-04-17 03:18 26.30484 127.69452 1396 ft 179 kts 54°
2026-04-17 03:18 26.31242 127.70494 1136 ft 166 kts 55°
2026-04-17 03:18 26.31912 127.71416 954 ft 144 kts 56°
2026-04-17 03:18 26.32500 127.72234 793 ft 141 kts 55°
2026-04-17 03:19 26.33127 127.73094 650 ft 142 kts 53°
2026-04-17 03:19 26.33756 127.73944 404 ft 142 kts 56°
2026-04-17 03:19 26.34359 127.74777 208 ft 135 kts 55°
2026-04-17 03:19 26.34952 127.75596 94 ft 133 kts 51°
2026-04-17 03:20 26.35447 127.76279 91 ft 88 kts 51°
2026-04-17 03:20 26.35752 127.76691 88 ft 61 kts 51°
2026-04-17 03:20 26.35921 127.76927 89 ft 30 kts 51°
2026-04-17 03:20 26.36056 127.77111 90 ft 31 kts 51°
2026-04-17 03:21 26.36161 127.77258 89 ft 13 kts 52°
2026-04-17 03:21 26.36197 127.77329 88 ft 10 kts 80°
2026-04-17 03:21 26.36172 127.77400 90 ft 10 kts 140°
2026-04-17 03:21 26.36103 127.77424 92 ft 10 kts 167°
2026-04-17 03:22 26.36033 127.77442 92 ft 10 kts 167°
2026-04-17 03:22 26.35962 127.77460 93 ft 10 kts 167°
2026-04-17 03:22 26.35891 127.77477 94 ft 10 kts 170°
2026-04-17 03:22 26.35824 127.77447 95 ft 13 kts 222°
2026-04-17 03:23 26.35753 127.77351 94 ft 18 kts 231°
2026-04-17 03:23 26.35673 127.77241 96 ft 18 kts 231°
2026-04-17 03:23 26.35592 127.77130 97 ft 18 kts 230°
2026-04-17 03:23 26.35511 127.77020 99 ft 18 kts 231°
2026-04-17 03:24 26.35430 127.76909 97 ft 18 kts 231°
2026-04-17 03:24 26.35349 127.76798 98 ft 18 kts 231°
2026-04-17 03:24 26.35268 127.76688 96 ft 18 kts 231°
2026-04-17 03:24 26.35189 127.76579 97 ft 18 kts 231°
2026-04-17 03:25 26.35114 127.76476 95 ft 11 kts 231°
2026-04-17 03:25 26.35065 127.76439 96 ft 9 kts 185°
2026-04-17 03:25 26.35013 127.76469 96 ft 9 kts 142°
2026-04-17 03:25 26.34966 127.76510 95 ft 9 kts 141°
2026-04-17 03:26 26.34925 127.76557 95 ft 9 kts 115°
2026-04-17 03:26 26.34943 127.76617 95 ft 9 kts 51°
2026-04-17 03:26 26.34977 127.76671 94 ft 9 kts 60°
2026-04-17 03:26 26.34998 127.76734 96 ft 9 kts 71°
2026-04-17 03:27 26.35003 127.76752 93 ft 0 kts 71°
2026-04-17 03:27 26.35004 127.76754 93 ft 0 kts 71°
2026-04-17 03:27 26.35005 127.76757 94 ft 0 kts 71°
2026-04-17 03:27 26.35009 127.76770 93 ft 7 kts 71°
2026-04-17 03:28 26.35035 127.76822 93 ft 7 kts 28°
2026-04-17 03:28 26.35086 127.76814 93 ft 7 kts 340°
2026-04-17 03:28 26.35109 127.76775 95 ft 5 kts 242°
2026-04-17 03:28 26.35075 127.76774 94 ft 5 kts 165°
2026-04-17 03:29 26.35058 127.76780 93 ft 0 kts 160°